User: anonymous   Login
Location: Carabito
(9.8355°N, 67.9249°W)
Time: 05:59:57
(UTC+00:00)
Language:

CZ-3 R/B - Orbit

View from above orbital plane
View from above orbital plane
View from above satellite
View from above satellite

Ground track
Ground track

The orbit data is extracted from the following two-line orbital elements,

1 29517U 06048B   24201.94890648  .00000754  00000-0  74500-3 0  9994
2 29517  28.2759  76.4178 4104593   2.4813 359.0688  6.89418441345709
Epoch (UTC): 19 July 2024 22:46:25
Eccentricity: 0.4104593
inclination: 28.2759°
perigee height: 496 km
apogee height: 10069 km
right ascension of ascending node: 76.4178°
argument of perigee: 2.4813°
revolutions per day: 6.89418441
mean anomaly at epoch: 359.0688°
orbit number at epoch: 34570

The dashed part of the orbit path shows where the satellite is in the earth's shadow,  

DLR